{"data":{"norad_id":61877,"epoch":"2026-05-24T20:26:22.591968Z","epoch_age_seconds":83767,"freshness":"FRESH","line1":"1 61877U 24204D   26144.85165037 -.00001611  00000+0 -84363-5 0  9992","line2":"2 61877  53.1596 341.0393 0000930  90.2497 269.8627 15.69720767 88866","mean_motion":15.69720767,"eccentricity":9.3e-5,"inclination_deg":53.1596,"raan_deg":341.0393,"arg_perigee_deg":90.2497,"mean_anomaly_deg":269.8627,"bstar":-8.4363e-6,"rev_number":8886,"period_min":91.736060978035,"perigee_km":359.06932109991,"apogee_km":360.32255802666,"semimajor_km":6737.8329395633,"source":"CELESTRAK","updated_at":"2026-05-25T13:38:19.474456Z"}}